{"data":{"norad_id":56204,"epoch":"2026-05-25T04:22:00.217344Z","epoch_age_seconds":55342,"freshness":"FRESH","line1":"1 56204U 23054AC  26145.18194696  .00014574  00000+0  24194-3 0  9996","line2":"2 56204  97.3067  54.6819 0008353 114.4013 245.8113 15.52172953174889","mean_motion":15.52172953,"eccentricity":0.0008353,"inclination_deg":97.3067,"raan_deg":54.6819,"arg_perigee_deg":114.4013,"mean_anomaly_deg":245.8113,"bstar":0.00024194,"rev_number":17488,"period_min":92.77316662533,"perigee_km":404.71252584439,"apogee_km":416.05342731726,"semimajor_km":6788.5199765808,"source":"CELESTRAK","updated_at":"2026-05-25T13:37:59.399994Z"}}